2017-008Z

Last updated on Wed Mar 01 2017 00:15:03 GMT+0000 (Coordinated Universal Time)

1 41971U 17008Z 17059.75282357 .00001605 00000-0 74458-4 0 9993 2 41971 97.5092 121.3535 0007811 205.8356 154.2456 15.21491967 1814
UTC large
Height (km)
Speed (km/s)
/
Latitude / Longitude
Inclination (degrees)
Orbital Period (minutes)
Azimuth
Elevation
Range (km)
Doppler Factor

Next 0 passes for location: London (51.5072 / 0.1276)

Sorry there are no passes over London.